Regional Weather Roundup
Issued by NWS

Home | Current Version | Previous Version | Text Only | Print | Product List | Glossary On
Versions: 1 2 3 4 5 6 7 8 9 10 11 12 13 14 15 16 17 18 19 20 21 22 23 24 25 26 27 28 29 30 31 32 33 34 35 36 37 38 39 40 41 42 43 44 45 46 47 48 49 50
000
ASUS45 KTFX 062310
RWRMT
MONTANA REGIONAL WEATHER ROUNDUP
NATIONAL WEATHER SERVICE GREAT FALLS MT
400 PM MST SAT FEB 06 2016

NOTE: "FAIR" INDICATES FEW OR NO CLOUDS BELOW 12000 FEET WITH NO
SIGNIFICANT WEATHER AND/OR OBSTRUCTIONS TO VISIBILITY.

MTZ001>007-043-070000-
WEST OF THE DIVIDE

CITY           SKY/WX    TMP DP  RH WIND       PRES   REMARKS
KALISPELL      PTSUNNY   40  15  36 W21G29    30.19R
MISSOULA       PTSUNNY   38  26  62 W9        30.29S WCI  31
BUTTE          CLOUDY    36  12  37 W22G37    30.13F WCI  25
MULLAN PASS    CLOUDY    23  21  92 W8        30.22R WCI  14
ANACONDA         N/A     37  10  32 W22G35    30.12R WCI  27
DEER LODGE       N/A     36  16  44 W20G29    30.18R WCI  25
HAMILTON         N/A     43  14  31 S14G22    30.29R
LIBBY            N/A     43  16  33 W6G20     30.27R
PLAINS           N/A     42  23  47 SW18      30.27R
$$

MTZ008-052>055-070000-
SOUTHWEST MONTANA

CITY           SKY/WX    TMP DP  RH WIND       PRES   REMARKS
BOZEMAN        CLOUDY    36  22  56 NW20G29   30.13S WCI  25
DILLON         CLOUDY    41  22  46 W21G30    30.18R
ENNIS          CLOUDY    39  18  41 S16       30.21R WCI  30
THREE FORKS      N/A     43  -9  11 NW10      30.13R
TWIN BRIDGES     N/A     38  19  46 NE7       30.14S
$$

MTZ009-010-012-014-046-048-049-054-070000-
EAST SLOPES AND CENTRAL MONTANA

CITY           SKY/WX    TMP DP  RH WIND       PRES   REMARKS
CUT BANK       PTSUNNY   37  16  42 W38G47    29.97F WCI  23
GREAT FALLS    CLOUDY    39  16  39 W26G35    30.05R WCI  28
MALMSTROM AFB  CLOUDY    40  16  38 W22G31    30.07R
HELENA         CLOUDY    39  20  46 W36G44    30.13F WCI  26
CHOTEAU          N/A     37  14  38 W23G38    30.07R WCI  26
CONRAD           N/A     41  17  38 SW33      30.01F
$$

MTZ011-013-016-021-045-047-050-051-070000-
NORTH CENTRAL MONTANA

CITY           SKY/WX    TMP DP  RH WIND       PRES   REMARKS
HAVRE          CLOUDY    39  30  70 CALM      29.99R
LEWISTOWN      CLOUDY    39  19  44 NW31G41   30.01R WCI  27
N BAR RANCH    CLOUDY    39  12  33 NW26G36   30.01R WCI  28
CHINOOK          N/A     36  34  93 N13       29.99R WCI  27
$$

MTZ017>020-022>027-061-062-070000-
NORTHEAST MONTANA

CITY           SKY/WX    TMP DP  RH WIND       PRES   REMARKS
GLASGOW        CLOUDY    39  28  64 W26G36    29.81R WCI  28
JORDAN           N/A     39  28  64 NW32G43   29.93R WCI  27
SIDNEY         CLEAR     46  21  36 W30G45    29.72R
WOLF POINT     MOCLDY    42  31  64 W26G40    29.78R
PLENTYWOOD       N/A     37  34  87 NW37G53   29.62R WCI  24
POPLAR           N/A     41  30  65 W20G29    29.73R
SCOBEY           N/A     41  24  51 W21       29.70R
$$

MTZ028>42-056>058-070000-
SOUTHCENTRAL AND SOUTHEAST MONTANA

CITY           SKY/WX    TMP DP  RH WIND       PRES   REMARKS
BAKER          MOCLDY    47  14  26 W31G47    29.82S
BILLINGS       CLOUDY    42  12  29 NW24G31   30.03R
LIVINGSTON     CLOUDY    39  18  42 W21       30.09S WCI  29
MILES CITY     SUNNY     48  20  32 NW40G53   29.89R
FORSYTH          N/A     48  12  23 W30G47    29.92R
LAUREL           N/A     44  12  27 W21       30.02R
ROUNDUP          N/A     44   8  23 W28       29.91R
$$

REGIONAL REPORTS...DAKOTAS

CITY           SKY/WX    TMP DP  RH WIND       PRES   REMARKS
WILLISTON      CLEAR     46  27  47 W29G43    29.63F
MINOT          CLEAR     50  26  39 W21G29    29.56F
DICKINSON      CLEAR     45  18  34 W31G39    29.71R
BEACH          CLOUDY    45  18  33 NW31G43   29.80R
CROSBY         CLOUDY    39  34  81 W28G38    29.59R WCI  28
TIOGA          CLOUDY    41  30  65 W28G36    29.63S
WATFORD CITY     N/A     46  25  42 W29G43    29.65F
BISMARCK       CLOUDY    53  27  36 W17G29    29.68F
GRAND FORKS    CLOUDY    37  32  82 S12       29.58F WCI  29
FARGO          CLOUDY    38  33  82 SW12      29.66S WCI  30
BUFFALO SD       N/A     42  31  64 W28       29.81F
RAPID CITY     CLOUDY    48  27  44 N16       29.85R
$$

REGIONAL REPORTS...WYOMING/IDAHO/WASHINGTON

CITY           SKY/WX    TMP DP  RH WIND       PRES   REMARKS
GILLETTE       CLOUDY    39  25  57 NW13      29.99R WCI  31
SHERIDAN         N/A     41  21  45 NW17      29.96F
BUFFALO WY     CLOUDY    37  25  61 NE12      30.00R WCI  29
CODY           CLOUDY    45  12  26 W16G26    30.06S
YELLOWSTONE LA   N/A     23  15  71 MISG      30.22S
IDAHO FALLS    CLOUDY    31  23  72 S7        30.37F WCI  24
SALMON         CLOUDY    28  19  69 CALM      30.28R
BOISE          PTSUNNY   44  32  62 NW8       30.42R
SPOKANE        CLOUDY    38  31  76 W9        30.36S WCI  31
$$

REGIONAL REPORTS...ALBERTA

CITY           SKY/WX    TMP DP  RH WIND       PRES   REMARKS
EDMONTON       PTCLDY    37  19  48 NW22G38   29.78R WCI  27
CALGARY        MOSUNNY   39   5  24 W22G39    29.91R WCI  29
LETHBRIDGE     MOSUNNY   43  10  26 W37G48    29.94R
MEDICINE HAT   PTSUNNY   45  19  36 W21G30    29.88R
WATERTON GATE    N/A     36   9  32 W23G33      N/A  WCI  24
CARDSTON         N/A     39   9  28 W17G32      N/A  WCI  30
MILK RIVER       N/A     39  18  41 W31G37      N/A  WCI  27
ONEFOUR          N/A     36  30  80 W12         N/A  WCI  27
$$

REGIONAL REPORTS...SASKATCHEWAN

CITY           SKY/WX    TMP DP  RH WIND       PRES   REMARKS
SWIFT CURRENT  MOCLDY    37  25  60 W26       29.73R WCI  26
REGINA         LGT RAIN  36  34  93 NW24G41   29.55R WCI  24
SASKATOON      PTCLDY    39  25  56 NW31G39   29.54R WCI  27
CYPRESS HILLS    N/A     34  23  64 W12G24      N/A  WCI  25
ROCKGLEN         N/A     39  23  52 NW29G43     N/A  WCI  28
ASSINIBOIA       N/A     37  21  52 NW35G49     N/A  WCI  24
$$



USA.gov is the U.S. government's official web portal to all federal, state and local government web resources and services.